Regional Weather Roundup
Issued by NWS

Home | Current Version | Previous Version | Graphics & Text | Print | Product List | Glossary On
Versions: 1 2 3 4 5 6 7 8 9 10 11 12 13 14 15 16 17 18 19 20 21 22 23 24 25 26 27 28 29 30 31 32 33 34 35 36 37 38 39 40 41 42 43 44 45 46 47 48 49 50
000
ASUS43 KFSD 230102
RWRSD

WEATHER ROUNDUP FOR SOUTH DAKOTA
NATIONAL WEATHER SERVICE SIOUX FALLS SD
800 PM CDT MON MAY 22 2017

NOTE: "FAIR" INDICATES FEW OR NO CLOUDS BELOW 12,000 FEET WITH NO
SIGNIFICANT WEATHER AND/OR OBSTRUCTIONS TO VISIBILITY.


SDZ001>005-009-010-012>017-230200-
NORTHWEST AND NORTH CENTRAL SOUTH DAKOTA

CITY           SKY/WX    TMP DP  RH WIND       PRES   REMARKS
BUFFALO          N/A     58  37  45 N16       30.03R
FAITH            N/A     57  36  45 N17       30.04R
MOBRIDGE       CLOUDY    58  37  45 N13       29.98R
$$

SDZ012>016-024>037-041>051-057-063-072>074-230200-
SOUTHWEST AND SOUTH CENTRAL SOUTH DAKOTA

CITY           SKY/WX    TMP DP  RH WIND       PRES   REMARKS
RAPID CTY ARPT MOSUNNY   50  43  77 NW15      30.10R
PIERRE         CLOUDY    59  35  40 N16       29.98R
CUSTER         CLOUDY    45  30  55 N8G20     30.13R
ELLSWORTH AFB  PTSUNNY   50  46  87 NW13      30.09S
PHILIP         CLOUDY    53  47  79 W7        30.03R
PINE RIDGE     LGT RAIN  50  44  80 NW7       30.10R
SPEARFISH      RAIN      48  43  81 NW5G12    30.15R
WINNER         FAIR      59  44  57 NW10      29.98S
$$

SDZ004>011-016>023-039-040-230200-
NORTHEAST SOUTH DAKOTA

CITY           SKY/WX    TMP DP  RH WIND       PRES   REMARKS
ABERDEEN       CLOUDY    54  38  54 N16       29.95R
WATERTOWN      CLOUDY    53  41  63 N12       29.89R
BROOKINGS      CLOUDY    50  47  89 SW5       29.89S
SISSETON         N/A     54  42  64 N18       29.89R
$$

SDZ017-020-022-023-036>040-048>070-230200-
SOUTHEAST SOUTH DAKOTA

CITY           SKY/WX    TMP DP  RH WIND       PRES   REMARKS
SIOUX FALLS    CLOUDY    53  46  77 NW12      29.90R
HURON          PTCLDY    55  48  77 W8        29.92R
MITCHELL       CLEAR     57  43  59 NW9       29.94R
YANKTON        PTCLDY    55  46  71 NW18      29.92R
$$

ABBREVIATIONS USED IN REMARKS
   TC - TEMPERATURE IN CELSIUS
  WCI - WIND CHILL INDEX
   HX - HEAT INDEX
  VSB - VISIBILITY




USA.gov is the U.S. government's official web portal to all federal, state and local government web resources and services.